Glasgow, KY

7:25 AM CDT on April 26, 2017 (GMT -0500)
Glasgow Municipal

Weather History for KGLW - March, 2013

Change the Weather History Date:

Sunday, March 24, 2013

  Actual Average Record
Temperature  
Mean Temperature 41 °F -  
Max Temperature 48 °F 61 °F 80 °F (1967)
Min Temperature 34 °F 36 °F 17 °F (1971)
Degree Days  
Heating Degree Days 24    
Moisture  
Dew Point 38 °F    
Average Humidity 89    
Maximum Humidity 100    
Minimum Humidity 54    
Precipitation  
Precipitation 0.45 in - - ()
Sea Level Pressure  
Sea Level Pressure 29.56 in    
Wind  
Wind Speed 8 mph (NNE)    
Max Wind Speed 24 mph    
Max Gust Speed 36 mph    
Visibility 8 miles    
Events Rain , Snow , Thunderstorm    
Averages and records for this station are not official NWS values.
T = Trace of Precipitation, MM = Missing Value Source: NWS Daily Summary

Daily Weather History Graph

Daily Weather History Graph

Search for Another Location

Airport or City:

Trip Planner

Search our weather history database for the weather conditions in past years. The results will help you decide how hot, cold, wet, or windy it might be!

Date:

Astronomy

Mar. 24, 2013 Rise Set
Actual Time 6:41 AM CDT 6:59 PM CDT
Civil Twilight 6:15 AM CDT 7:25 PM CDT
Nautical Twilight 5:44 AM CDT 7:55 PM CDT
Astronomical Twilight 5:13 AM CDT 8:26 PM CDT
Moon 4:29 PM CDT (3/24) 4:47 AM CDT (3/24)
Length of Visible Light 13h 10m
Length of Day
12h 18m
Waxing Gibbous, 92% of the Moon is Illuminated
Mar 24
Waxing Gibbous
Mar 27
Full
Apr 2
Last Quarter
Apr 10
New
Apr 18
First Quarter

Hourly Weather History & Observations

Time (CDT) Temp. Windchill Dew Point Humidity Pressure Visibility Wind Dir Wind Speed Gust Speed Precip Events Conditions
12:15 AM 47.8 °F - 32.5 °F 55% 29.76 in 10.0 mi ENE 5.8 mph - N/A   Overcast
12:35 AM 48.0 °F - 32.0 °F 54% 29.76 in 10.0 mi ENE 6.9 mph - N/A Rain Light Rain
12:55 AM 46.8 °F - 33.6 °F 60% 29.74 in 10.0 mi North - - N/A Rain Light Rain
1:15 AM 45.1 °F 42.0 °F 36.3 °F 71% 29.73 in 10.0 mi East 5.8 mph - N/A Rain Light Rain
1:35 AM 44.6 °F 42.2 °F 37.0 °F 75% 29.72 in 10.0 mi NNE 4.6 mph - N/A Rain Light Rain
1:55 AM 44.4 °F 42.0 °F 36.9 °F 75% 29.72 in 10.0 mi NNE 4.6 mph - 0.01 in Rain Light Rain
2:15 AM 43.7 °F 40.3 °F 37.0 °F 77% 29.71 in 10.0 mi NNE 5.8 mph - N/A Rain Light Rain
2:35 AM 43.2 °F 41.5 °F 37.0 °F 79% 29.71 in 10.0 mi NE 3.5 mph - 0.01 in Rain Rain
2:55 AM 42.4 °F 38.8 °F 37.9 °F 84% 29.70 in 10.0 mi ENE 5.8 mph - 0.02 in Rain Light Rain
3:15 AM 41.9 °F 39.0 °F 38.5 °F 88% 29.69 in 7.0 mi NE 4.6 mph - 0.01 in Rain Light Rain
3:35 AM 41.7 °F 38.0 °F 39.9 °F 93% 29.66 in 10.0 mi NE 5.8 mph - 0.03 in Rain Light Rain
3:55 AM 41.2 °F 36.0 °F 41.2 °F 100% 29.63 in 10.0 mi ENE 8.1 mph - 0.03 in   Light Drizzle
4:15 AM 41.2 °F 36.6 °F 41.2 °F 100% 29.62 in 10.0 mi ENE 6.9 mph - N/A   Overcast
4:35 AM 41.2 °F 37.3 °F 41.2 °F 100% 29.63 in 10.0 mi NE 5.8 mph - N/A   Overcast
4:55 AM 41.2 °F 36.0 °F 41.2 °F 100% 29.63 in 10.0 mi ENE 8.1 mph - N/A   Overcast
5:15 AM 41.2 °F 35.5 °F 41.2 °F 100% 29.62 in 10.0 mi ENE 9.2 mph - N/A   Overcast
5:35 AM 41.2 °F 36.6 °F 41.2 °F 100% 29.62 in 10.0 mi ENE 6.9 mph - N/A   Overcast
5:55 AM 41.2 °F 38.2 °F 41.2 °F 100% 29.62 in 10.0 mi NE 4.6 mph - N/A   Light Drizzle
6:15 AM 41.2 °F 39.2 °F 41.2 °F 100% 29.61 in 10.0 mi NE 3.5 mph - N/A   Light Drizzle
6:35 AM 41.2 °F 38.2 °F 41.2 °F 100% 29.61 in 10.0 mi NE 4.6 mph - N/A   Overcast
6:55 AM 41.0 °F 38.0 °F 41.0 °F 100% 29.60 in 10.0 mi NE 4.6 mph - N/A   Light Drizzle
7:15 AM 41.0 °F 37.1 °F 41.0 °F 100% 29.60 in 10.0 mi ENE 5.8 mph - N/A   Overcast
7:35 AM 41.0 °F 38.0 °F 41.0 °F 100% 29.60 in 10.0 mi NE 4.6 mph - N/A   Overcast
7:55 AM 40.8 °F 35.0 °F 40.8 °F 100% 29.61 in 10.0 mi North 9.2 mph - N/A   Overcast
8:15 AM 40.3 °F 35.5 °F 40.3 °F 100% 29.61 in 10.0 mi NNE 6.9 mph - N/A   Overcast
8:35 AM 40.1 °F 35.3 °F 40.1 °F 100% 29.60 in 7.0 mi NNE 6.9 mph - N/A   Overcast
8:55 AM 40.1 °F 36.1 °F 40.1 °F 100% 29.59 in 7.0 mi NNE 5.8 mph - N/A   Overcast
9:15 AM 39.9 °F 35.8 °F 39.9 °F 100% 29.59 in 5.0 mi NE 5.8 mph - N/A   Overcast
9:35 AM - - - N/A% 29.59 in 3.0 mi NNE 4.6 mph - N/A   Overcast
9:55 AM - - - N/A% 29.59 in 2.0 mi NE 3.5 mph - N/A   Overcast
10:15 AM - - - N/A% 29.59 in 1.2 mi NE 3.5 mph - N/A   Overcast
10:35 AM - - - N/A% 29.57 in 1.5 mi NNE 4.6 mph - N/A   Overcast
10:55 AM - - - N/A% 29.56 in 1.2 mi NE 4.6 mph - N/A   Overcast
11:15 AM - - - N/A% 29.51 in 1.8 mi NE 9.2 mph - N/A   Overcast
11:35 AM - - - N/A% 29.51 in 1.8 mi ENE 5.8 mph - N/A   Overcast
11:55 AM - - - N/A% 29.48 in 1.5 mi East 11.5 mph - N/A   Overcast
12:15 PM - - - N/A% 29.46 in 2.0 mi ESE 11.5 mph - N/A   Overcast
12:35 PM - - - N/A% 29.43 in 3.0 mi East 12.7 mph - N/A   Overcast
12:55 PM - - - N/A% 29.44 in 4.0 mi ESE 5.8 mph - N/A   Haze
1:15 PM - - - N/A% 29.43 in 4.0 mi ESE 3.5 mph - N/A   Haze
1:35 PM - - - N/A% 29.41 in 4.0 mi North - - N/A   Haze
1:55 PM - - - N/A% 29.40 in 1.8 mi North 6.9 mph - 0.03 in Rain , Thunderstorm Light Thunderstorms and Rain
2:15 PM - - - N/A% 29.38 in 2.5 mi North 9.2 mph 17.3 mph 0.03 in Rain , Thunderstorm Thunderstorms and Rain
2:35 PM - - - N/A% 29.38 in 0.5 mi North - - 0.20 in Thunderstorm Unknown
2:55 PM - - - N/A% 29.40 in 1.2 mi North - - 0.28 in Thunderstorm Overcast
3:15 PM - - - N/A% 29.41 in 7.0 mi North - - 0.01 in Rain , Thunderstorm Light Thunderstorms and Rain
3:35 PM - - - N/A% 29.42 in 10.0 mi North - - 0.01 in Thunderstorm Overcast
3:55 PM - - - N/A% 29.42 in 10.0 mi North - - 0.01 in Rain Rain
4:15 PM - - - N/A% 29.43 in 10.0 mi North - - N/A   Overcast
4:35 PM - - - N/A% 29.42 in 10.0 mi WNW 8.1 mph - N/A   Drizzle
4:55 PM 45.0 °F 40.1 °F 45.0 °F 100% 29.42 in 10.0 mi West 9.2 mph - N/A   Overcast
5:15 PM 46.0 °F 41.9 °F 45.1 °F 97% 29.43 in 10.0 mi WSW 8.1 mph - N/A   Overcast
5:35 PM 46.0 °F 41.9 °F 45.1 °F 97% 29.42 in 10.0 mi WSW 8.1 mph - N/A   Overcast
5:55 PM 45.7 °F 38.8 °F 45.1 °F 98% 29.44 in 2.5 mi West 16.1 mph 29.9 mph 0.03 in Rain Light Rain
6:15 PM 44.2 °F 36.7 °F 41.2 °F 89% 29.46 in 10.0 mi West 17.3 mph 25.3 mph N/A   Light Drizzle
6:35 PM 43.7 °F 36.9 °F 41.7 °F 93% 29.47 in 10.0 mi WSW 13.8 mph 20.7 mph N/A   Overcast
6:55 PM 43.5 °F 36.1 °F 40.5 °F 89% 29.48 in 10.0 mi WSW 16.1 mph 25.3 mph N/A   Overcast
7:15 PM 43.0 °F 33.5 °F 38.7 °F 85% 29.50 in 10.0 mi WSW 24.2 mph 28.8 mph N/A   Overcast
7:35 PM 42.4 °F 33.5 °F 37.4 °F 82% 29.51 in 7.0 mi WSW 20.7 mph 26.5 mph N/A Rain Light Rain
7:55 PM 40.8 °F 31.4 °F 37.2 °F 87% 29.51 in 10.0 mi WSW 20.7 mph 32.2 mph 0.01 in Rain Rain
8:15 PM 40.1 °F 31.6 °F 37.0 °F 89% 29.51 in 7.0 mi WSW 16.1 mph 26.5 mph 0.01 in Rain Light Rain
8:55 PM 38.8 °F 30.0 °F 36.7 °F 92% 29.55 in 10.0 mi West 16.1 mph 28.8 mph 0.03 in   Drizzle
9:15 PM 37.6 °F 27.7 °F 34.7 °F 89% 29.56 in 10.0 mi WSW 18.4 mph 28.8 mph N/A Rain Rain
9:35 PM 36.3 °F 26.1 °F 32.5 °F 86% 29.58 in 10.0 mi WSW 18.4 mph 35.7 mph N/A   Overcast
9:55 PM 35.6 °F 25.9 °F 31.3 °F 84% 29.59 in 10.0 mi West 16.1 mph 25.3 mph N/A   Overcast
10:15 PM 35.4 °F 25.6 °F 30.0 °F 81% 29.59 in 10.0 mi West 16.1 mph 25.3 mph N/A   Overcast
10:35 PM 35.2 °F 24.1 °F 29.8 °F 81% 29.59 in 10.0 mi WSW 20.7 mph 26.5 mph N/A   Overcast
10:55 PM 35.1 °F 25.5 °F 29.8 °F 81% 29.60 in 10.0 mi WSW 15.0 mph 29.9 mph N/A   Overcast
11:15 PM 34.9 °F 25.3 °F 29.5 °F 81% 29.60 in 5.0 mi West 15.0 mph 26.5 mph N/A Snow Light Snow
11:35 PM 34.3 °F 24.2 °F 29.1 °F 81% 29.61 in 10.0 mi West 16.1 mph 24.2 mph N/A   Overcast
11:55 PM 34.3 °F 23.5 °F 28.4 °F 79% 29.61 in 10.0 mi WSW 18.4 mph 26.5 mph N/A   Overcast